STARLINK-31707, 59736

Orbit data source: Space-Track

STARLINK-31707, 59736 is a payload satellite owned by SpaceX/Seattle (US) in LEO that was launched on Mon, 13 May 2024 UTC via an FALCON 9 launch vehicle from the Air Force Eastern Test Range (AFETR). Payload-class satellites include a variety of spacecraft equipped with specific instruments for various scientific and technological missions. These include communications satellites like Starlink; space stations such as the ISS; scientific satellites like the Hubble; Earth observation satellites from companies like Planet Labs, Umbra, and HawkEye 360; GPS; miniature CubeSats for education and research; and military/defense satellites.

Loading next visibility...
Identifier
59736, 2024-090G
Orbit
LEO
Country
Flag of USUS
Related business
Manufacturer
SpaceX/Seattle
Mission
Operational Commercial Communications
Bus & Motor
STARLINK V2M, Unknown motor
Mass
730 kg wet, ~700 kg dry
Launch date (UTC)
2024-05-13 (2 years ago)
Launch vehicle
FALCON 9
Launch site
Air Force Eastern Test Range (AFETR)
Object type
Payload
Rocket body
Debris
Shape & HBR
Box + 2 Pan, 17.7 m
Radar Cross Section
33.884 m², Large (>1 m²)

Expand to show TLE details & history
Last TLE update: 3 days ago

TLE from 3 days ago
0 STARLINK-31707
1 59736U 24090G   26170.51393531  .00001001  00000-0  45888-4 0  9990
2 59736  43.0019 328.3785 0001525 265.9738  94.0939 15.27582105119010
Epoch: 2026-06-19T12:20Z
TLE epoch observation values (Epoch: 2026-06-19T12:20:04.010Z)
Latitude
-0.00006°
Longitude
-124.38009°
Altitude
482.893 km
Speed
7.626 km/s
True Right ascension
21h 53m 30s
True Declination
0° 00' 00"
Sunlit
Object was in full shadow at epoch
Visualization orbit readout
Latitude
Unknown
Longitude
Unknown
Altitude
Unknown
Speed
Unknown
Apparent Right ascension
Unknown
Apparent Declination
Unknown
Sunlit
N/A
Visualization observer readout
Local Sidereal Time
21:32:06
Azimuth
Unknown
Elevation
Unknown
Doppler factor
Unknown
Orbital elements
Apogee altitude
486.034 km
Perigee altitude
483.941 km
Semi-major axis
6,863.125 km
Eccentricity
0.00015
Inclination
43.0019°
RAAN
328.3785°
Arg. of periapsis
265.9738°
True anomaly
94.11133°
Mean anomaly
94.0939°
Eccentric anomaly
94.10262°
Mean motion
3.81734 °/min
Orbital period
94.31 mins
BSTAR
0.000045888
Loading maneuver chart data...
Computing Atmospheric mass density...
Loading historical data...
Loading historical data...
Loading historical data...
Loading historical data...
Loading historical data...
Loading historical data...
Loading historical data...

Documentation

Showing up to 5 results
|